Weather History for Bogalusa, LA

Change the Weather History Date:

Saturday, February 1, 2014

  Actual Average Record
Temperature  
Mean Temperature 54 °F -  
Max Temperature 75 °F 63 °F 75 °F (2014)
Min Temperature 34 °F 38 °F 34 °F (2014)
Degree Days  
Heating Degree Days 10    
Growing Degree Days 4 (Base 50)    
Moisture  
Dew Point 50 °F    
Average Humidity 78    
Maximum Humidity 93    
Minimum Humidity 50    
Precipitation  
Precipitation 0.00 in - - ()
Sea Level Pressure  
Sea Level Pressure 30.05 in    
Wind  
Wind Speed 3 mph (South)    
Max Wind Speed 13 mph    
Max Gust Speed 18 mph    
Visibility 9 miles    
Events Fog , Thunderstorm    
Averages and records for this station are not official NWS values.
T = Trace of Precipitation, MM = Missing Value Source: NWS Daily Summary

Daily Weather History Graph

Daily Weather History Graph

Search for Another Location

Airport:

Trip Planner

Search our weather history database for the weather conditions in past years. The results will help you decide how hot, cold, wet, or windy it might be!

Date:

Astronomy

Feb. 01, 2014 Rise Set
Actual Time 6:51 AM CST 5:35 PM CST
Civil Twilight 6:25 AM CST 6:00 PM CST
Nautical Twilight 5:56 AM CST 6:29 PM CST
Astronomical Twilight 5:28 AM CST 6:58 PM CST
Moon 7:52 AM CST (2/1) 7:57 PM CST (2/1)
Length of Visible Light 11h 34m
Length of Day
10h 44m
Waxing Crescent, 5% of the Moon is Illuminated
Feb 1
Waxing Crescent
Feb 6
First Quarter
Feb 14
Full
Feb 22
Last Quarter
Mar 1
New

Hourly Weather History & Observations

Time (CST) Temp. Windchill Dew Point Humidity Pressure Visibility Wind Dir Wind Speed Gust Speed Precip Events Conditions
12:15 AM 46.0 °F - 43.2 °F 90% 30.08 in 7.0 mi Calm Calm - N/A   Unknown
12:35 AM 46.6 °F - 43.9 °F 90% 30.08 in 7.0 mi Calm Calm - N/A   Unknown
12:55 AM 41.4 °F - 38.3 °F 89% 30.07 in 7.0 mi Calm Calm - N/A   Unknown
1:15 AM 39.6 °F - 37.0 °F 91% 30.07 in 0.2 mi Calm Calm - N/A Fog Fog
1:35 AM 40.5 °F - 38.1 °F 91% 30.07 in 5.0 mi Calm Calm - N/A   Mist
1:55 AM 39.2 °F - 36.9 °F 91% 30.07 in 7.0 mi Calm Calm - N/A   Unknown
2:15 AM 38.5 °F - 36.1 °F 91% 30.07 in 1.0 mi Calm Calm - N/A   Mist
2:35 AM 38.7 °F - 36.5 °F 92% 30.06 in 10.0 mi Calm Calm - N/A   Unknown
2:55 AM 38.7 °F - 36.5 °F 92% 30.05 in 5.0 mi Calm Calm - N/A   Mist
3:15 AM 37.2 °F - 35.1 °F 92% 30.04 in 7.0 mi Calm Calm - N/A   Unknown
3:35 AM 36.1 °F - 34.0 °F 92% 30.04 in 10.0 mi Calm Calm - N/A   Unknown
3:55 AM 35.6 °F - 33.6 °F 92% 30.03 in 10.0 mi Calm Calm - N/A   Unknown
4:15 AM 35.6 °F - 33.1 °F 91% 30.03 in 10.0 mi Calm Calm - N/A   Unknown
4:35 AM 35.2 °F - 33.1 °F 92% 30.03 in 10.0 mi Calm Calm - N/A   Unknown
4:55 AM 34.7 °F - 32.4 °F 91% 30.03 in 10.0 mi Calm Calm - N/A   Unknown
5:15 AM 34.9 °F - 32.7 °F 92% 30.03 in 10.0 mi Calm Calm - N/A   Unknown
5:35 AM 35.4 °F 32.6 °F 33.1 °F 91% 30.03 in 10.0 mi North 3.5 mph - N/A   Unknown
5:55 AM 35.1 °F 31.0 °F 32.9 °F 92% 30.04 in 5.0 mi North 4.6 mph - N/A Thunderstorm Mist
6:15 AM 35.6 °F 32.8 °F 33.3 °F 91% 30.04 in 5.0 mi North 3.5 mph - N/A   Mist
6:35 AM 35.4 °F - 33.1 °F 91% 30.04 in 5.0 mi Calm Calm - N/A   Mist
6:55 AM 34.5 °F - 32.4 °F 92% 30.05 in 4.0 mi Calm Calm - N/A   Mist
7:15 AM 34.9 °F 32.0 °F 32.5 °F 91% 30.06 in 0.2 mi North 3.5 mph - N/A Fog Fog
7:35 AM 35.6 °F - 33.4 °F 92% 30.06 in 0.5 mi Calm Calm - N/A Fog Fog
7:55 AM 39.0 °F - 37.0 °F 93% 30.07 in 0.2 mi Calm Calm - N/A Fog Fog
8:15 AM 43.7 °F - 41.5 °F 92% 30.08 in 1.8 mi Calm Calm - N/A   Mist
8:35 AM 48.7 °F - 46.6 °F 92% 30.08 in 10.0 mi Calm Calm - N/A   Unknown
8:55 AM 51.3 °F - 48.4 °F 90% 30.09 in 10.0 mi Calm Calm - N/A   Unknown
9:15 AM 53.6 °F - 49.1 °F 85% 30.09 in 10.0 mi Calm Calm - N/A   Unknown
9:35 AM 58.1 °F - 50.5 °F 76% 30.09 in 10.0 mi SE 3.5 mph - N/A   Unknown
9:55 AM 60.8 °F - 51.6 °F 72% 30.09 in 10.0 mi SE 4.6 mph - N/A   Unknown
10:15 AM 63.5 °F - 52.7 °F 68% 30.08 in 10.0 mi SE 3.5 mph - N/A   Unknown
10:35 AM 66.4 °F - 54.0 °F 64% 30.08 in 10.0 mi SSE 3.5 mph - N/A   Unknown
10:55 AM 69.8 °F - 55.4 °F 60% 30.07 in 10.0 mi South 10.4 mph - N/A   Unknown
11:15 AM 70.7 °F - 55.6 °F 59% 30.07 in 10.0 mi South 12.7 mph 17.3 mph N/A   Unknown
11:35 AM 72.7 °F - 55.4 °F 55% 30.06 in 10.0 mi SSW 10.4 mph - N/A   Unknown
11:55 AM 72.5 °F - 55.4 °F 55% 30.05 in 10.0 mi South 11.5 mph 16.1 mph N/A   Unknown
12:15 PM 72.7 °F - 55.0 °F 54% 30.05 in 10.0 mi SSW 10.4 mph 16.1 mph N/A   Unknown
12:35 PM 73.2 °F - 55.6 °F 54% 30.05 in 10.0 mi South 10.4 mph - N/A   Unknown
12:55 PM 75.2 °F - 55.6 °F 50% 30.04 in 10.0 mi South 9.2 mph - N/A   Unknown
1:15 PM 73.8 °F - 55.9 °F 54% 30.03 in 10.0 mi South 12.7 mph 16.1 mph N/A   Unknown
1:35 PM 73.4 °F - 56.3 °F 55% 30.03 in 10.0 mi SSW 10.4 mph 16.1 mph N/A   Unknown
1:55 PM 73.0 °F - 56.8 °F 57% 30.03 in 10.0 mi SSW 9.2 mph - N/A   Unknown
2:15 PM 73.6 °F - 57.0 °F 56% 30.02 in 10.0 mi South 6.9 mph - N/A   Unknown
2:35 PM 73.8 °F - 56.8 °F 55% 30.02 in 10.0 mi South 9.2 mph - N/A   Unknown
2:55 PM 74.5 °F - 56.8 °F 54% 30.02 in 10.0 mi SW 5.8 mph - N/A   Unknown
3:15 PM 74.7 °F - 56.5 °F 53% 30.01 in 10.0 mi SW 3.5 mph - N/A   Unknown
3:35 PM 73.4 °F - 57.2 °F 57% 30.01 in 10.0 mi SSW 6.9 mph - N/A   Unknown
3:55 PM 73.4 °F - 57.0 °F 56% 30.02 in 10.0 mi SSW 9.2 mph - N/A   Unknown
4:15 PM 74.5 °F - 56.7 °F 54% 30.01 in 10.0 mi South 9.2 mph - N/A   Unknown
4:35 PM 73.8 °F - 57.2 °F 56% 30.01 in 10.0 mi SSE 6.9 mph - N/A   Unknown
4:55 PM 71.2 °F - 59.0 °F 65% 30.03 in 10.0 mi SSE 9.2 mph - N/A   Unknown
5:15 PM 69.8 °F - 59.2 °F 69% 30.03 in 10.0 mi SSE 12.7 mph 18.4 mph N/A   Unknown
5:35 PM 68.9 °F - 59.2 °F 71% 30.03 in 10.0 mi SSE 10.4 mph 16.1 mph N/A   Unknown
5:55 PM 68.2 °F - 59.5 °F 74% 30.03 in 10.0 mi South 10.4 mph 16.1 mph N/A   Unknown
6:15 PM 67.6 °F - 59.9 °F 76% 30.04 in 10.0 mi South 6.9 mph - N/A   Unknown
6:35 PM 67.3 °F - 60.1 °F 78% 30.04 in 10.0 mi SSE 9.2 mph - N/A   Unknown
6:55 PM 66.4 °F - 60.1 °F 80% 30.04 in 10.0 mi SSE 10.4 mph - N/A   Unknown
7:15 PM 66.0 °F - 60.3 °F 82% 30.04 in 10.0 mi SSE 8.1 mph - N/A   Unknown
7:35 PM 65.5 °F - 60.6 °F 84% 30.04 in 10.0 mi SSE 4.6 mph - N/A   Unknown
7:55 PM 65.7 °F - 60.6 °F 84% 30.05 in 10.0 mi SSE 5.8 mph - N/A   Unknown
8:15 PM 65.3 °F - 60.8 °F 85% 30.05 in 10.0 mi SSE 6.9 mph - N/A   Unknown
8:35 PM 65.3 °F - 60.8 °F 85% 30.05 in 10.0 mi South 9.2 mph - N/A   Unknown
8:55 PM 65.3 °F - 60.8 °F 85% 30.05 in 10.0 mi SSE 9.2 mph - N/A   Unknown
9:15 PM 65.3 °F - 61.0 °F 86% 30.06 in 10.0 mi SSE 6.9 mph - N/A   Unknown
9:35 PM 64.9 °F - 60.8 °F 86% 30.05 in 10.0 mi SSE 6.9 mph - N/A   Unknown
9:55 PM 65.3 °F - 60.8 °F 85% 30.05 in 10.0 mi SSE 8.1 mph - N/A   Unknown
10:15 PM 64.9 °F - 60.4 °F 85% 30.05 in 10.0 mi SSE 8.1 mph - N/A   Unknown
10:35 PM 64.9 °F - 60.6 °F 86% 30.05 in 10.0 mi SSE 6.9 mph - N/A   Unknown
10:55 PM 64.9 °F - 60.8 °F 86% 30.06 in 10.0 mi South 8.1 mph - N/A   Unknown
11:15 PM 64.6 °F - 60.8 °F 88% 30.06 in 10.0 mi SSE 6.9 mph - N/A   Unknown
11:35 PM 64.4 °F - 60.8 °F 88% 30.06 in 10.0 mi SSE 8.1 mph - N/A   Unknown
11:55 PM 64.4 °F - 60.8 °F 88% 30.05 in 10.0 mi SSE 5.8 mph - N/A   Unknown